EN

Hourly Weather Khyzhyne

Today, 28 October, Wednesday

Time Temperature Precipitation Wind Pressure Humidity
00:00 +10°C° 0 mm 4 mps 752 mmHg 57%
01:00 +10°C° 0 mm 4 mps 753 mmHg 58%
02:00 +9°C° 0 mm 3 mps 753 mmHg 59%
03:00 +9°C° 0 mm 3 mps 753 mmHg 61%
04:00 +7°C° 0 mm 4 mps 753 mmHg 62%
05:00 +7°C° 0 mm 4 mps 752 mmHg 64%
06:00 +7°C° 0 mm 4 mps 753 mmHg 63%
07:00 +8°C° 0 mm 4 mps 753 mmHg 61%
08:00 +8°C° 0 mm 5 mps 753 mmHg 60%
09:00 +11°C° 0 mm 4 mps 753 mmHg 58%
10:00 +12°C° 0 mm 4 mps 753 mmHg 56%
11:00 +14°C° 0 mm 4 mps 753 mmHg 54%
12:00 +14°C° 0 mm 4 mps 752 mmHg 54%
13:00 +15°C° 0 mm 4 mps 752 mmHg 53%
14:00 +17°C° 0 mm 4 mps 752 mmHg 52%
15:00 +15°C° 0 mm 4 mps 752 mmHg 57%
16:00 +14°C° 0 mm 3 mps 752 mmHg 61%
17:00 +13°C° 0 mm 3 mps 752 mmHg 65%
18:00 +12°C° 0 mm 3 mps 752 mmHg 67%
19:00 +12°C° 0 mm 3 mps 752 mmHg 69%
20:00 +11°C° 0 mm 3 mps 752 mmHg 72%
21:00 +11°C° 0 mm 3 mps 752 mmHg 75%
22:00 +10°C° 0 mm 3 mps 751 mmHg 78%
23:00 +10°C° 0 mm 3 mps 751 mmHg 82%

Tomorrow, 29 October, Thursday

Time Temperature Precipitation Wind Pressure Humidity
00:00 +9°C° 0 mm 3 mps 751 mmHg 85%
01:00 +9°C° 0 mm 3 mps 751 mmHg 88%
02:00 +8°C° 0 mm 3 mps 751 mmHg 91%
03:00 +8°C° 0 mm 3 mps 751 mmHg 92%
04:00 +8°C° 0 mm 3 mps 751 mmHg 93%
05:00 +8°C° 0 mm 3 mps 750 mmHg 94%
06:00 +8°C° 0 mm 3 mps 750 mmHg 90%
07:00 +9°C° 0 mm 3 mps 750 mmHg 86%
08:00 +8°C° 0 mm 4 mps 750 mmHg 81%
09:00 +10°C° 0 mm 3 mps 750 mmHg 74%
10:00 +12°C° 0 mm 3 mps 750 mmHg 67%
11:00 +14°C° 0 mm 3 mps 750 mmHg 59%
12:00 +15°C° 0 mm 2 mps 749 mmHg 58%
13:00 +16°C° 0 mm 2 mps 749 mmHg 56%
14:00 +16°C° 0 mm 1 mps 749 mmHg 54%
15:00 +16°C° 0 mm 2 mps 749 mmHg 57%
16:00 +15°C° 0 mm 2 mps 748 mmHg 61%
17:00 +14°C° 0 mm 2 mps 748 mmHg 64%
18:00 +14°C° 0.3 mm 2 mps 748 mmHg 68%
19:00 +13°C° 0.3 mm 2 mps 748 mmHg 72%
20:00 +13°C° 0.3 mm 2 mps 748 mmHg 76%
21:00 +12°C° 0.1 mm 2 mps 748 mmHg 77%
22:00 +12°C° 0.1 mm 1 mps 748 mmHg 77%
23:00 +12°C° 0.1 mm 1 mps 748 mmHg 78%

Day after tomorrow, 30 October, Friday

Time Temperature Precipitation Wind Pressure Humidity
00:00 +12°C° 0 mm 1 mps 747 mmHg 79%
01:00 +10°C° 0 mm 2 mps 747 mmHg 79%
02:00 +10°C° 0 mm 2 mps 747 mmHg 80%
03:00 +10°C° 0 mm 2 mps 747 mmHg 80%
04:00 +10°C° 0 mm 2 mps 747 mmHg 81%
05:00 +9°C° 0 mm 2 mps 747 mmHg 81%
06:00 +10°C° 0 mm 2 mps 747 mmHg 78%
07:00 +10°C° 0 mm 2 mps 747 mmHg 76%
08:00 +12°C° 0 mm 1 mps 748 mmHg 73%
09:00 +12°C° 0 mm 2 mps 748 mmHg 69%
10:00 +13°C° 0 mm 2 mps 748 mmHg 65%
11:00 +14°C° 0 mm 2 mps 748 mmHg 62%
12:00 +15°C° 0 mm 2 mps 747 mmHg 59%
13:00 +14°C° 0 mm 3 mps 747 mmHg 57%
14:00 +16°C° 0 mm 3 mps 747 mmHg 54%
15:00 +14°C° 0 mm 3 mps 747 mmHg 58%
16:00 +14°C° 0 mm 2 mps 747 mmHg 62%
17:00 +13°C° 0 mm 2 mps 748 mmHg 66%
18:00 +13°C° 0 mm 2 mps 748 mmHg 69%
19:00 +13°C° 0 mm 2 mps 748 mmHg 71%
20:00 +12°C° 0 mm 2 mps 748 mmHg 73%
21:00 +12°C° 0 mm 2 mps 748 mmHg 74%
22:00 +12°C° 0 mm 2 mps 748 mmHg 76%
23:00 +10°C° 0 mm 2 mps 748 mmHg 77%

31 October, Saturday

Time Temperature Precipitation Wind Pressure Humidity
00:00 +10°C° 0 mm 2 mps 748 mmHg 79%
01:00 +10°C° 0 mm 2 mps 748 mmHg 81%
02:00 +9°C° 0 mm 2 mps 748 mmHg 82%
03:00 +9°C° 0 mm 2 mps 748 mmHg 81%
04:00 +10°C° 0 mm 3 mps 748 mmHg 79%
05:00 +10°C° 0 mm 3 mps 748 mmHg 78%
06:00 +10°C° 0.1 mm 3 mps 748 mmHg 79%
07:00 +10°C° 0.1 mm 3 mps 748 mmHg 80%
08:00 +10°C° 0.1 mm 3 mps 748 mmHg 80%
09:00 +10°C° 0.2 mm 3 mps 748 mmHg 81%
10:00 +10°C° 0.2 mm 3 mps 748 mmHg 81%
11:00 +10°C° 0.2 mm 3 mps 748 mmHg 81%
12:00 +10°C° 0.1 mm 3 mps 748 mmHg 81%
13:00 +10°C° 0.1 mm 3 mps 747 mmHg 80%
14:00 +11°C° 0.1 mm 3 mps 747 mmHg 79%
15:00 +10°C° 0 mm 3 mps 747 mmHg 81%
16:00 +10°C° 0 mm 3 mps 747 mmHg 83%
17:00 +10°C° 0 mm 3 mps 747 mmHg 85%
18:00 +10°C° 0 mm 3 mps 748 mmHg 86%
19:00 +10°C° 0 mm 4 mps 748 mmHg 86%
20:00 +10°C° 0 mm 4 mps 748 mmHg 87%
21:00 +9°C° 0 mm 3 mps 748 mmHg 89%
22:00 +9°C° 0 mm 3 mps 748 mmHg 91%
23:00 +9°C° 0 mm 3 mps 748 mmHg 92%

1 November, Sunday

Time Temperature Precipitation Wind Pressure Humidity
00:00 +9°C° 0 mm 3 mps 749 mmHg 92%
01:00 +9°C° 0 mm 3 mps 749 mmHg 92%
02:00 +9°C° 0 mm 2 mps 749 mmHg 92%
03:00 +9°C° 0 mm 2 mps 749 mmHg 92%
04:00 +9°C° 0 mm 2 mps 749 mmHg 92%
05:00 +9°C° 0 mm 2 mps 749 mmHg 92%
06:00 +9°C° 0 mm 2 mps 749 mmHg 90%
07:00 +10°C° 0 mm 2 mps 750 mmHg 89%
08:00 +10°C° 0 mm 2 mps 750 mmHg 88%
09:00 +12°C° 0 mm 1 mps 750 mmHg 84%
10:00 +13°C° 0 mm 1 mps 750 mmHg 79%
11:00 +13°C° 0 mm 1 mps 750 mmHg 75%
12:00 +14°C° 0 mm 1 mps 750 mmHg 72%
13:00 +14°C° 0 mm 1 mps 750 mmHg 69%
14:00 +15°C° 0 mm 1 mps 750 mmHg 66%
15:00 +14°C° 0 mm 1 mps 750 mmHg 68%
16:00 +14°C° 0 mm 1 mps 750 mmHg 70%
17:00 +13°C° 0 mm 1 mps 751 mmHg 72%
18:00 +13°C° 0 mm 2 mps 751 mmHg 74%
19:00 +12°C° 0 mm 2 mps 751 mmHg 76%
20:00 +12°C° 0 mm 2 mps 751 mmHg 78%
21:00 +11°C° 0 mm 3 mps 751 mmHg 78%
22:00 +11°C° 0 mm 3 mps 751 mmHg 79%
23:00 +11°C° 0 mm 3 mps 751 mmHg 79%

2 November, Monday

Time Temperature Precipitation Wind Pressure Humidity
00:00 +11°C° 1.4 mm 4 mps 751 mmHg 84%
01:00 +11°C° 1.4 mm 4 mps 751 mmHg 88%
02:00 +11°C° 1.4 mm 4 mps 751 mmHg 93%
03:00 +11°C° 1.2 mm 4 mps 751 mmHg 92%
04:00 +10°C° 1.2 mm 5 mps 751 mmHg 92%
05:00 +10°C° 1.2 mm 5 mps 750 mmHg 92%
06:00 +12°C° 1.8 mm 5 mps 750 mmHg 92%
07:00 +12°C° 1.8 mm 5 mps 750 mmHg 92%
08:00 +11°C° 1.8 mm 6 mps 750 mmHg 92%
09:00 +12°C° 1.6 mm 5 mps 750 mmHg 92%
10:00 +12°C° 1.6 mm 5 mps 751 mmHg 93%
11:00 +13°C° 1.6 mm 5 mps 751 mmHg 93%
12:00 +13°C° 1.2 mm 4 mps 751 mmHg 92%
13:00 +13°C° 1.2 mm 4 mps 751 mmHg 92%
14:00 +13°C° 1.2 mm 3 mps 751 mmHg 91%
15:00 +12°C° 0 mm 3 mps 752 mmHg 91%
16:00 +12°C° 0 mm 3 mps 752 mmHg 90%
17:00 +11°C° 0 mm 3 mps 753 mmHg 90%
18:00 +11°C° 0 mm 3 mps 753 mmHg 91%
19:00 +11°C° 0 mm 3 mps 754 mmHg 92%
20:00 +11°C° 0 mm 3 mps 754 mmHg 93%
21:00 +11°C° 0 mm 3 mps 754 mmHg 93%
22:00 +10°C° 0 mm 3 mps 754 mmHg 93%
23:00 +10°C° 0 mm 3 mps 755 mmHg 93%
Show more

We Need Your Consent

Meteoprog and our Service Providers may store and access personal data such as cookies, device identifiers or other similar technologies on your device and process such data to personalise content and ads, as well as provide social media features and to analyse the traffic.

  • Store and/or access information on your device

    Cookies, device identifiers or other information can be stored or accessed on your device for the purposes indicated above.

  • Personalised ads and content, ad and content measurement, audience insights, and products development

    Ads and content can be personalised based on a profile. More data can be added to better personalise ads and content. Ad and content performance can be measured. Insights about the audience who saw the ads and content can be derived. Such data can be used to develop or improve user’s experience, systems and software.

By clicking ‘I Agree’ you will allow the use of indicated cookies, device identifiers, web beacons or other similar technologies. Your settings can be changed in the browser on your device.

For certain purposes, legitimate interests may be relied on, rather than consent. You can read more about this in our Privacy and Cookie Policy.